FW7031 Weather Reports


time (UTC)temp
C
wind
direction
speed
KPH
gust
KPH
rain 1hr
cm
rain 24hr
cm
rain mn
cm
humidity
%
barometer
mb
20260508003045 17 337 8.0 16.1 0.00 0.00 0.00 23 1016.9
20260508001539 17 314 9.7 19.3 0.00 0.00 0.00 23 1016.8
20260508001439 18 262 8.0 27.4 0.00 0.00 0.00 22 1016.9
20260507234540 18 321 9.7 22.5 0.00 0.00 0.00 22 1016.8
20260507233041 18 326 9.7 19.3 0.00 0.00 0.00 22 1016.9
20260507231538 17 268 8.0 20.9 0.00 0.00 0.00 23 1017.0
20260507230037 18 12 9.7 27.4 0.00 0.00 0.00 22 1017.0
20260507224536 18 330 14.5 32.2 0.00 0.00 0.00 23 1017.0
20260507223738 17 263 14.5 30.6 0.00 0.03 0.00 22 1017.0
20260507221536 18 347 14.5 29.0 0.00 0.03 0.00 21 1017.1
20260507220733 18 279 16.1 37.0 0.00 0.03 0.00 20 1017.4
20260507214535 19 321 9.7 22.5 0.00 0.05 0.00 21 1017.4
20260507213035 18 317 6.4 27.4 0.00 0.05 0.00 25 1017.5
20260507211535 17 293 8.0 29.0 0.00 0.08 0.00 24 1017.6
20260507210035 17 327 8.0 20.9 0.00 0.10 0.00 25 1018.1
20260507204537 17 311 11.3 24.1 0.00 0.10 0.00 26 1018.4
20260507203037 17 23 12.9 22.5 0.00 0.13 0.00 25 1018.4
20260507201529 17 36 11.3 20.9 0.00 0.15 0.00 25 1018.7
20260507200031 17 244 11.3 30.6 0.00 0.20 0.00 25 1018.8
20260507194529 17 336 11.3 25.7 0.00 0.23 0.00 25 1018.8
20260507193029 17 343 9.7 32.2 0.00 0.23 0.00 25 1019.1
20260507191529 17 305 14.5 33.8 0.00 0.23 0.00 26 1019.2
20260507190030 17 338 11.3 25.7 0.00 0.23 0.00 24 1019.2
20260507185232 17 329 4.8 12.9 0.00 0.23 0.00 21 1019.3
20260507183712 16 324 1.6 14.5 0.00 0.23 0.00 20 1019.5
20260507181525 16 224 4.8 16.1 0.00 0.23 0.00 23 1019.6
20260507180025 16 252 3.2 11.3 0.00 0.23 0.00 22 1019.7
20260507174523 15 342 3.2 12.9 0.00 0.23 0.00 21 1019.9
20260507173020 15 352 4.8 12.9 0.00 0.23 0.00 23 1020.1
20260507171515 15 353 3.2 12.9 0.00 0.23 0.00 22 1020.2
20260507170015 15 307 4.8 19.3 0.00 0.23 0.00 21 1020.2
20260507165211 14 279 8.0 24.1 0.00 0.23 0.00 25 1020.3
20260507163014 13 279 6.4 19.3 0.00 0.23 0.00 23 1020.6
20260507161517 13 333 6.4 19.3 0.00 0.23 0.00 23 1020.7
20260507161417 13 332 6.4 19.3 0.00 0.23 0.00 26 1020.6
20260507154510 12 293 12.9 24.1 0.00 0.23 0.00 29 1020.6
20260507153717 12 326 9.7 25.7 0.00 0.23 0.00 29 1020.6
20260507151509 11 332 8.0 19.3 0.00 0.23 0.00 32 1020.6
20260507150009 11 281 8.0 19.3 0.00 0.23 0.00 35 1020.6
20260507144509 10 328 9.7 30.6 0.00 0.23 0.00 34 1020.7
20260507143009 10 319 9.7 27.4 0.00 0.23 0.00 38 1020.6
20260507142158 8 317 8.0 17.7 0.00 0.23 0.00 41 1020.6
20260507140006 8 336 8.0 14.5 0.00 0.23 0.00 41 1020.7
20260507134503 7 339 6.4 12.9 0.00 0.23 0.00 42 1020.7
20260507133003 6 1 4.8 11.3 0.00 0.23 0.00 45 1020.6
20260507131505 5 22 8.0 12.9 0.00 0.23 0.00 49 1020.4
20260507130004 5 40 3.2 11.3 0.00 0.23 0.00 47 1020.3
20260507124457 3 28 3.2 11.3 0.00 0.23 0.00 50 1020.2
20260507122957 2 24 6.4 12.9 0.00 0.23 0.00 54 1020.2
20260507121457 2 25 6.4 12.9 0.00 0.23 0.00 55 1020.2
20260507115957 3 32 4.8 16.1 0.00 0.23 0.00 51 1020.2
20260507114457 3 21 4.8 12.9 0.00 0.23 0.00 48 1020.1
20260507112959 2 31 3.2 11.3 0.00 0.23 0.00 52 1020.3
20260507111451 1 28 6.4 14.5 0.00 0.23 0.00 55 1020.3
20260507110646 1 35 6.4 11.3 0.00 0.23 0.00 56 1020.3
20260507104452 1 52 6.4 11.3 0.00 0.23 0.00 58 1020.2
20260507103653 1 42 6.4 11.3 0.00 0.23 0.00 58 1020.2
20260507101453 1 40 6.4 11.3 0.00 0.23 0.00 59 1020.4
20260507095952 1 60 6.4 12.9 0.00 0.23 0.00 60 1020.4
20260507094447 1 26 6.4 11.3 0.00 0.23 0.00 63 1020.4
20260507092947 0 39 3.2 16.1 0.00 0.23 0.00 66 1020.7
20260507091446 0 19 6.4 12.9 0.00 0.23 0.00 70 1020.6
20260507090526 0 56 3.2 9.7 0.00 0.23 0.00 81 1020.9
20260507085949 0 54 6.4 12.9 0.00 0.23 0.00 75 1020.8
20260507082945 -1 46 1.6 6.4 0.00 0.23 0.00 90 1020.9
20260507082145 -1 125 0.0 3.2 0.00 0.23 0.00 93 1021.3
20260507075945 -1 125 0.0 3.2 0.00 0.23 0.00 96 1021.3
20260507074444 -1 125 0.0 3.2 0.00 0.23 0.00 96 1021.5
20260507072943 -1 125 0.0 0.0 0.00 0.23 0.00 96 1021.8
20260507071441 -1 125 0.0 0.0 0.00 0.23 0.00 96 1021.8
20260507065939 -1 125 0.0 0.0 0.00 0.23 0.00 96 1021.7
20260507064433 -1 125 0.0 0.0 0.00 0.23 0.00 95 1021.8
20260507062932 -1 125 0.0 0.0 0.00 0.23 0.00 95 1021.8
20260507061431 -1 125 0.0 1.6 0.00 0.23 0.00 95 1021.8
20260507055929 -1 125 0.0 0.0 0.00 0.23 0.23 95 1021.9
20260507054430 0 125 0.0 0.0 0.00 0.23 0.23 95 1021.8
20260507053639 0 125 0.0 0.0 0.00 0.23 0.23 95 1021.9
20260507051425 0 125 0.0 1.6 0.00 0.23 0.23 94 1021.8
20260507045926 0 125 0.0 3.2 0.00 0.23 0.23 94 1021.5
20260507045132 0 125 0.0 3.2 0.00 0.23 0.23 93 1021.5
20260507042926 0 125 0.0 4.8 0.00 0.23 0.23 93 1021.5
20260507041426 0 125 1.6 6.4 0.00 0.23 0.23 92 1021.7
20260507035926 0 120 1.6 6.4 0.00 0.23 0.23 90 1021.5
20260507034426 0 129 1.6 8.0 0.00 0.23 0.23 88 1021.5
20260507032925 0 127 1.6 8.0 0.00 0.23 0.23 88 1021.5
20260507031426 0 133 3.2 8.0 0.00 0.23 0.23 87 1021.3
20260507025927 0 122 1.6 11.3 0.00 0.23 0.23 85 1021.3
20260507025130 1 129 4.8 11.3 0.00 0.23 0.23 84 1021.0
20260507022926 1 144 1.6 6.4 0.00 0.23 0.23 82 1021.0
20260507021426 1 137 3.2 9.7 0.00 0.23 0.23 81 1020.9
20260507015924 1 171 4.8 12.9 0.00 0.23 0.23 78 1020.8
20260507014424 2 156 6.4 14.5 0.00 0.23 0.23 75 1020.8
20260507014211 3 157 8.0 16.1 0.00 0.25 0.23 68 1020.8
20260507012938 3 143 6.4 16.1 0.00 0.23 0.23 70 1020.8
20260507005920 3 146 6.4 17.7 0.00 0.25 0.23 70 1020.7